Tracking 19832 objects as of 25-Aug-2019
HD Live streaming from Space Station
objects crossing your sky now

SL-6 R/B(2)

Track SL-6 R/B(2) now!


NORAD ID: 22241
Int'l Code: 1992-081D
Perigee: 5,456.4 km
Apogee: 34,420.0 km
Inclination: 68.9 °
Period: 707.8 minutes
Semi major axis: 26309 km
RCS: 5.1164 m2 (large)
Launch date: November 25, 1992
Source: Commonwealth of Independent States (former USSR) (CIS)
Launch site: PLESETSK MISSILE AND SPACE COMPLEX (PKMTR)

Note: This is a ROCKET BODY
aabbcc
Your satellite tracking list
Your tracking list is empty




NASA's NSSDC Master Catalog

Two Line Element Set (TLE):
1 22241U 92081D   19235.60835220 +.00000078 +00000-0 +00000-0 0  9992
2 22241 068.9322 169.2760 5504456 090.0125 329.7526 02.03442485198677
Source of the keplerian elements: AFSPC